Location: Gouy
(50.0008°N, 3.2556°E)
Time: 03:56:44
(UTC+00:00)

Cosmos 724 - Pass Details

Date: 23 May 2024
Orbit: 864 x 930 km, 65.6° (Epoch: 21 June)

Event Time Altitude Azimuth Distance (km) Brightness Sun altitude
Exits shadow 00:12:04 33° 202° (SSW) 1,439 4.9 -19.1°
Maximum altitude 00:14:48 74° 125° (SE) 916 4.2 -19.0°
Drops below altitude 10° 00:20:37 10° 41° (NE) 2,524 7.5 -18.9°
Sets 00:23:06 0° 40° (NE) 3,460 8.4 -18.8°
